Preview of NWS' New Version of Forecast
This preview is not operational and should not be used for support decisions.

Regional Weather Roundup (RWR)

Issued by National Weather Service (NWS)

                            
000
ASUS44 KJAN 200810
RWRMS 

MISSISSIPPI HOURLY WEATHER ROUNDUP
NATIONAL WEATHER SERVICE JACKSON MS
300 AM CDT FRI SEP 20 2019

NOTE: "FAIR: INDICATES FEW OR NO CLOUDS BELOW 12,000 FEET WITH NO
SIGNIFICANT WEATHER AND/OR OBSTRUCTIONS TO VISIBILITY.

MSZ001>002-007>008-010>013-018>021-025>028-034>036-200900-
NORTHWEST MISSISSIPPI
  
CITY           SKY/WX    TMP DP  RH WIND       PRES   REMARKS
BATESVILLE     PTSUNNY   75  72  88 CALM      30.07R                  
CLARKSDALE       N/A     73  73 100 CALM      30.06S                  
CLEVELAND      FAIR      74  73  94 SE7       30.05R                  
GREENWOOD      FAIR      76  68  76 S3        30.06R                  
GREENVILLE     FAIR      73  69  87 SE6       30.04R                  
OLIVE BRANCH     N/A     75  72  88 CALM      30.08R                  
OXFORD         FAIR      73  70  88 VRB6      30.10R                  
TUNICA           N/A     72  70  94 SE5       30.07R                  
WINONA         CLOUDY    73  71  93 CALM      30.08S                  
$$

MSZ003>006-009-014>017-022>024-029>033-037>039-200900-
NORTHEAST MISSISSIPPI
  
CITY           SKY/WX    TMP DP  RH WIND       PRES   REMARKS
ABERDEEN       FAIR      72  55  56 SE5       30.12S                  
COLUMBUS AFB   FAIR      72  66  82 SE9       30.11S                  
CORINTH        PTSUNNY   73  66  78 SE8       30.12S                  
GOLDN TRIANGLE FAIR      75  68  78 SE13      30.11F                  
STARKVILLE       N/A     72  68  88 CALM      30.11S                  
TUPELO         FAIR      78  65  63 SE8       30.10F                  
$$

MSZ040-058-200900-
CENTRAL MISSISSIPPI
  
CITY           SKY/WX    TMP DP  RH WIND       PRES   REMARKS
JACKSON INTL   FAIR      74  70  87 SE7       30.06S                  
JACKSON HAWKNS MOCLDY    74  70  87 SE7       30.07S                  
MADISON        FAIR      72  72 100 CALM      30.08S                  
MERIDIAN KEY   MOCLDY    75  70  84 SE3       30.10S                  
MERIDIAN NAS   FAIR      72  70  93 E5        30.11S                  
RAYMOND        FAIR      73  73 100 E9        30.05F                  
VICKSBURG VKS  SUNNY     73  73 100 CALM      30.04R                  
$$

MSZ059>079-200900-
SOUTH MISSISSIPPI
  
CITY           SKY/WX    TMP DP  RH WIND       PRES   REMARKS
BROOKHAVEN     FAIR      73  72  94 CALM      30.08S                  
HATTIESBURG    FAIR      71  69  93 SE5       30.09S                  
LAUREL         SUNNY     71  69  94 E6        30.09F                  
MCCOMB         FAIR      74  72  93 SE6       30.05F                  
NATCHEZ        FAIR      74  71  91 SE6       30.04S                  
PINE BELT      FAIR      71  70  96 E3        30.10S                  
$$

MSZ080>082-200900-
COASTAL MISSISSIPPI
  
CITY           SKY/WX    TMP DP  RH WIND       PRES   REMARKS
BILOXI         FAIR      76  74  92 E9        30.05S                  
PASCAGOULA     FAIR      76  72  87 E6        30.07S                  
GULFPORT       FAIR      77  72  84 E8        30.04F                  
$$

LAZ007>009-015>016-023>026-200900-
NORTHEAST LOUISIANA
  
CITY           SKY/WX    TMP DP  RH WIND       PRES   REMARKS
BASTROP        FAIR      74  71  89 E3        30.03S                  
TALLULAH/VBURG FAIR      75  70  84 SE6       30.04R                  
VIDALIA        FAIR     N/A N/A N/A SE7       30.02S                  
$$